Location: Larkspur
(54.4391°N, 113.7691°W)
Time: 14:06:10
(UTC+00:00)

Oscar 19 - Pass Details

Date: 05 December 2023
Orbit: 771 x 789 km, 98.9° (Epoch: 01 March)

Event Time Altitude Azimuth Distance (km) Brightness Sun altitude
Rises 13:38:18 0° 12° (NNE) 3,273 13.8 -16.3°
Reaches altitude 10° 13:40:45 10° 5° (N) 2,343 13.0 -15.9°
Maximum altitude 13:45:27 37° 299° (WNW) 1,207 11.1 -15.3°
Drops below altitude 10° 13:50:09 10° 234° (SW) 2,340 12.8 -14.6°
Sets 13:52:36 0° 226° (SW) 3,268 13.6 -14.3°
